KLM1959 EHAM-LTFM

Flight info

Callsign KLM1959
Flight time N/A
Altitude 35000
Route EDUPO Z739 MISGO DCT GMH DCT EKSAK DCT SWALM DCT GASKA DCT ENITA DCT ETVIS DCT BUDEX DCT TEKNO DCT OGVUN DCT DUZLA DCT MAVIR DCT TIMUR L606 GASRU DCT RILEX
Aircraft A321/M-SDE3FGHIRWY/LB1

Departure

Time N/A
Airport Amsterdam Airport Schiphol (EHAM)

Arrival

Time 2026-05-01 07:57
Airport İstanbul Airport (LTFM)
Time Latitude Longitude Altitude Speed Heading
2026-05-01 07:23 41.97491 26.75765 35237 ft 481 kts 122°
2026-05-01 07:24 41.92354 26.87345 35241 ft 481 kts 125°
2026-05-01 07:24 41.88826 26.94979 35239 ft 481 kts 125°
2026-05-01 07:25 41.85332 27.02581 35235 ft 482 kts 125°
2026-05-01 07:25 41.81846 27.10240 35186 ft 482 kts 125°
2026-05-01 07:25 41.80078 27.14075 34471 ft 484 kts 126°
2026-05-01 07:26 41.78227 27.17854 33696 ft 485 kts 128°
2026-05-01 07:26 41.76318 27.21568 32978 ft 483 kts 129°
2026-05-01 07:26 41.74386 27.25229 32405 ft 478 kts 129°
2026-05-01 07:26 41.72471 27.28829 31729 ft 471 kts 131°
2026-05-01 07:27 41.70320 27.32058 31100 ft 457 kts 143°
2026-05-01 07:27 41.67830 27.34568 30463 ft 442 kts 154°
2026-05-01 07:27 41.65107 27.36339 29734 ft 428 kts 166°
2026-05-01 07:27 41.62287 27.37439 28946 ft 419 kts 171°
2026-05-01 07:28 41.59478 27.38420 28178 ft 415 kts 171°
2026-05-01 07:28 41.56738 27.39371 27401 ft 410 kts 171°
2026-05-01 07:28 41.53987 27.40321 26639 ft 406 kts 171°
2026-05-01 07:28 41.51267 27.41257 25916 ft 402 kts 171°
2026-05-01 07:29 41.48572 27.42189 25278 ft 396 kts 171°
2026-05-01 07:29 41.46043 27.43424 25130 ft 386 kts 154°
2026-05-01 07:29 41.44040 27.45769 24866 ft 385 kts 130°
2026-05-01 07:29 41.42905 27.48998 24381 ft 390 kts 104°
2026-05-01 07:30 41.42844 27.52600 23826 ft 392 kts 81°
2026-05-01 07:30 41.43433 27.56147 23109 ft 392 kts 76°
2026-05-01 07:30 41.44146 27.59643 22491 ft 389 kts 74°
2026-05-01 07:30 41.44896 27.63084 21911 ft 385 kts 73°
2026-05-01 07:31 41.45637 27.66490 21357 ft 381 kts 74°
2026-05-01 07:31 41.47671 27.76551 19747 ft 368 kts 75°
2026-05-01 07:32 41.48793 27.83138 18719 ft 361 kts 85°
2026-05-01 07:32 41.48781 27.86462 18177 ft 357 kts 97°
2026-05-01 07:33 41.48258 27.92998 17046 ft 351 kts 96°
2026-05-01 07:33 41.47967 27.96215 16507 ft 348 kts 103°
2026-05-01 07:33 41.45939 28.01872 15480 ft 335 kts 134°
2026-05-01 07:34 41.44261 28.03974 14968 ft 329 kts 145°
2026-05-01 07:34 41.40676 28.07713 13905 ft 325 kts 148°
2026-05-01 07:34 41.38723 28.09152 13365 ft 318 kts 162°
2026-05-01 07:35 41.36650 28.09910 12848 ft 310 kts 175°
2026-05-01 07:35 41.34498 28.10056 12340 ft 304 kts 182°
2026-05-01 07:35 41.33099 28.10072 11999 ft 303 kts 182°
2026-05-01 07:35 41.30316 28.10113 11336 ft 300 kts 181°
2026-05-01 07:36 41.28252 28.10150 11166 ft 285 kts 181°
2026-05-01 07:36 41.26327 28.09927 10855 ft 274 kts 196°
2026-05-01 07:36 41.24602 28.09030 10463 ft 269 kts 212°
2026-05-01 07:36 41.23573 28.08074 10216 ft 267 kts 223°
2026-05-01 07:37 41.20953 28.04675 10004 ft 263 kts 225°
2026-05-01 07:37 41.19221 28.02432 10011 ft 263 kts 224°
2026-05-01 07:37 41.18251 28.01413 10009 ft 264 kts 213°
2026-05-01 07:38 41.16654 28.00206 10013 ft 264 kts 210°
2026-05-01 07:38 41.15046 27.99014 10008 ft 265 kts 210°
2026-05-01 07:38 41.11854 27.96638 10010 ft 265 kts 210°
2026-05-01 07:39 41.10181 27.95612 10007 ft 265 kts 197°
2026-05-01 07:39 41.08393 27.94995 10013 ft 266 kts 194°
2026-05-01 07:39 41.04805 27.93785 10011 ft 266 kts 194°
2026-05-01 07:40 41.03009 27.93181 10011 ft 266 kts 194°
2026-05-01 07:40 41.01181 27.92796 10011 ft 266 kts 181°
2026-05-01 07:40 40.99331 27.92822 10012 ft 266 kts 179°
2026-05-01 07:40 40.97476 27.92857 10011 ft 266 kts 178°
2026-05-01 07:41 40.95681 27.93373 10010 ft 266 kts 153°
2026-05-01 07:41 40.94241 27.94854 10012 ft 264 kts 127°
2026-05-01 07:41 40.93402 27.99395 9387 ft 258 kts 79°
2026-05-01 07:42 40.93671 28.01732 9104 ft 256 kts 79°
2026-05-01 07:42 40.93926 28.04046 8821 ft 253 kts 80°
2026-05-01 07:42 40.94172 28.06341 8545 ft 251 kts 80°
2026-05-01 07:42 40.94413 28.08613 8273 ft 248 kts 79°
2026-05-01 07:43 40.94650 28.10860 8031 ft 245 kts 79°
2026-05-01 07:43 40.94885 28.13085 7779 ft 243 kts 79°
2026-05-01 07:43 40.95345 28.17462 7318 ft 240 kts 79°
2026-05-01 07:44 40.95810 28.21848 6852 ft 240 kts 79°
2026-05-01 07:44 40.96272 28.26186 6348 ft 235 kts 78°
2026-05-01 07:45 40.96493 28.28316 6115 ft 232 kts 78°
2026-05-01 07:45 40.96714 28.30428 5882 ft 231 kts 78°
2026-05-01 07:45 40.96935 28.32531 5654 ft 230 kts 78°
2026-05-01 07:45 40.97153 28.34618 5424 ft 229 kts 78°
2026-05-01 07:46 40.97367 28.36679 5223 ft 223 kts 79°
2026-05-01 07:46 40.97304 28.38717 5045 ft 223 kts 97°
2026-05-01 07:46 40.95928 28.42462 5004 ft 230 kts 114°
2026-05-01 07:47 40.95133 28.44303 5003 ft 231 kts 113°
2026-05-01 07:47 40.94337 28.46149 5003 ft 231 kts 114°
2026-05-01 07:47 40.93542 28.47992 5000 ft 231 kts 114°
2026-05-01 07:47 40.92747 28.49834 5001 ft 231 kts 114°
2026-05-01 07:48 40.91155 28.53523 5004 ft 231 kts 112°
2026-05-01 07:48 40.90357 28.55372 5006 ft 232 kts 112°
2026-05-01 07:48 40.89675 28.57284 4997 ft 226 kts 99°
2026-05-01 07:49 40.89479 28.59286 5005 ft 217 kts 82°
2026-05-01 07:49 40.90245 28.63050 5004 ft 214 kts 67°
2026-05-01 07:49 40.90738 28.64941 5002 ft 215 kts 68°
2026-05-01 07:50 40.91215 28.66790 5005 ft 215 kts 68°
2026-05-01 07:50 40.92930 28.69869 5010 ft 211 kts 32°
2026-05-01 07:50 40.94227 28.70830 5010 ft 212 kts 29°
2026-05-01 07:51 40.95501 28.71759 5010 ft 212 kts 29°
2026-05-01 07:51 40.96787 28.72701 5011 ft 211 kts 27°
2026-05-01 07:51 40.98180 28.73278 5008 ft 212 kts
2026-05-01 07:52 41.01153 28.73261 5009 ft 214 kts
2026-05-01 07:52 41.02630 28.73231 5008 ft 206 kts
2026-05-01 07:52 41.04036 28.73203 4779 ft 200 kts
2026-05-01 07:53 41.06752 28.73151 4258 ft 192 kts
2026-05-01 07:53 41.08096 28.73126 3997 ft 195 kts
2026-05-01 07:53 41.09463 28.73100 3722 ft 197 kts
2026-05-01 07:53 41.10849 28.73074 3457 ft 203 kts
2026-05-01 07:54 41.13733 28.73017 2875 ft 207 kts
2026-05-01 07:55 41.17984 28.72933 2011 ft 191 kts
2026-05-01 07:55 41.20427 28.72884 1539 ft 158 kts
2026-05-01 07:56 41.23461 28.72827 903 ft 133 kts
2026-05-01 07:56 41.25292 28.72787 538 ft 131 kts
2026-05-01 07:57 41.26196 28.72775 379 ft 129 kts
2026-05-01 07:57 41.27503 28.72750 333 ft 43 kts 359°
2026-05-01 07:58 41.27860 28.72744 334 ft 21 kts 359°
2026-05-01 07:58 41.28099 28.72853 331 ft 17 kts 30°
2026-05-01 07:59 41.28116 28.72963 332 ft 6 kts 182°
2026-05-01 07:59 41.28000 28.72963 330 ft 10 kts 179°
2026-05-01 08:00 41.27726 28.72970 334 ft 14 kts 179°
2026-05-01 08:01 41.27391 28.72977 330 ft 15 kts 179°
2026-05-01 08:01 41.27290 28.72980 332 ft 14 kts 179°
2026-05-01 08:01 41.27194 28.72982 333 ft 13 kts 179°
2026-05-01 08:02 41.27000 28.72985 331 ft 15 kts 179°
2026-05-01 08:02 41.26903 28.72994 330 ft 13 kts 163°
2026-05-01 08:03 41.26868 28.73251 333 ft 20 kts 89°
2026-05-01 08:03 41.26870 28.73436 331 ft 20 kts 89°
2026-05-01 08:03 41.26875 28.73807 332 ft 20 kts 89°
2026-05-01 08:04 41.26919 28.74018 331 ft 9 kts 23°
2026-05-01 08:04 41.26968 28.74154 334 ft 12 kts 90°
2026-05-01 08:05 41.26963 28.74435 334 ft 11 kts 117°
2026-05-01 08:05 41.26898 28.74465 331 ft 10 kts 178°
2026-05-01 08:05 41.26824 28.74466 333 ft 14 kts 179°
2026-05-01 08:06 41.26624 28.74471 334 ft 16 kts 179°
2026-05-01 08:06 41.26484 28.74424 330 ft 7 kts 264°
2026-05-01 08:07 41.26483 28.74359 330 ft 2 kts 269°
2026-05-01 08:07 41.26483 28.74358 330 ft 0 kts 269°